INTELSAT 22 (IS-22)

Last updated on Sun Jun 21 2026 00:03:05 GMT+0000 (Coordinated Universal Time)

1 38098U 12011A 26171.40632536 -.00000063 00000+0 00000+0 0 9997 2 38098 0.0176 47.9570 0001520 46.6214 32.4229 1.00272486 7220
UTC large
Height (km)
Speed (km/s)
/
Latitude / Longitude
Inclination (degrees)
Orbital Period (minutes)
Azimuth
Elevation
Range (km)
Doppler Factor

Next 0 passes for location: London (51.5072 / 0.1276)

No passes found over London.
INTELSAT 22 (IS-22)